Regional Weather Roundup
Issued by NWS

Home | Current Version | Previous Version | Text Only | Print | Product List | Glossary Off
Versions: 1 2 3 4 5 6 7 8 9 10 11 12 13 14 15 16 17 18 19 20 21 22 23 24 25 26 27 28 29 30 31 32 33 34 35 36 37 38 39 40 41 42 43 44 45 46 47 48 49 50

000
ASUS43 KMKX 012000
RWRWI

WISCONSIN REGIONAL WEATHER ROUNDUP
NATIONAL WEATHER SERVICE MILWAUKEE/SULLIVAN WI
300 PM CDT WED APR 01 2015

NOTE: "FAIR" INDICATES FEW OR NO CLOUDS BELOW 12,000 FEET WITH NO
SIGNIFICANT WEATHER AND/OR OBSTRUCTIONS TO VISIBILITY.

WIZ001-002-006>008-014>016-023>028-012100-
NORTHWEST WISCONSIN

CITY           SKY/WX    TMP DP  RH WIND       PRES   REMARKS
SUPERIOR ARPT  LGT RAIN  35  33  93 NE13G23   29.62F WCI  26
ASHLAND        CLOUDY    62  34  35 S14       29.61F
HAYWARD        CLOUDY    63  34  33 S16       29.62F
SIREN          LGT RAIN  60  43  53 SE10      29.57F
CUMBERLAND     PTSUNNY   63  34  34 S13       29.62F THUNDER
RICE LAKE      PTSUNNY   65  33  29 SE14G23   29.64F
CHETEK         PTSUNNY   67  37  33 SE13G22   29.64F
LADYSMITH      CLOUDY    65  36  34 S16G23    29.70F
EAU CLAIRE     NOT AVBL
MENOMONIE      MOSUNNY   77  34  20 S22G32    29.63F
NEW RICHMOND   CLOUDY    71  37  28 S26G33    29.58F
OSCEOLA        CLOUDY    71  37  29 S20G30    29.61S
$$

WIZ003>005-009-010-017-018-012100-
NORTH CENTRAL WISCONSIN

CITY           SKY/WX    TMP DP  RH WIND       PRES   REMARKS
MANITOWISH WTR CLOUDY    58  34  40 S15G23    29.69F
ARBOR VITAE    PTSUNNY   57  33  40 S17G24    29.72F
WOODRUFF       PTSUNNY   57  33  40 S17G24    29.72F
RHINELANDER    PTSUNNY   58  33  39 S15G25    29.74F
EAGLE RIVER    CLOUDY    56  28  35 S14G23    29.74F
LAND O LAKES   PTSUNNY   55  30  38 S15G25    29.74F
PHILLIPS       CLOUDY    61  36  39 S17G23    29.69F
TOMAHAWK       MOSUNNY   60  34  37 S3        29.74F
MEDFORD        PTSUNNY   62  39  42 S18G25    29.73F
MERRILL        MOSUNNY   62  35  36 S14G22    29.77F
$$

WIZ029-030-035-036-043>047-012100-
CENTRAL WISCONSIN

CITY           SKY/WX    TMP DP  RH WIND       PRES   REMARKS
WAUSAU         MOSUNNY   64  35  34 S15G26    29.74F
MOSINEE        SUNNY     64  34  32 S22G28    29.78F
MARSHFIELD     PTSUNNY   69  36  29 S18G29    29.73F
STEVENS POINT  MOSUNNY   64  35  33 SE15G23   29.80F
WAUPACA        MOSUNNY   68  33  27 SE14G21   29.83F
WAUTOMA        NOT AVBL
WISC RAPIDS    MOSUNNY   72  30  21 S16G24    29.77F
CAMP DOUGLAS   NOT AVBL
$$

WIZ011>013-019>022-031-037>040-048>050-012100-
NORTHEAST WISCONSIN

CITY           SKY/WX    TMP DP  RH WIND       PRES   REMARKS
ANTIGO         MOSUNNY   55  37  50 SE21      29.81F
SHAWANO        SUNNY     60  37  42 SE15G21   29.86F
OCONTO         MOSUNNY   51  35  52 SE13G18   29.89F
STURGEON BAY   PTSUNNY   45  36  70 SE21      29.92F
GREEN BAY      SUNNY     57  38  48 SE17      29.87F
MANITOWOC      NOT AVBL
APPLETON       MOSUNNY   61  34  36 SE14      29.86
CLINTONVILLE   SUNNY     59  34  38 SE15G24   29.85F
OSHKOSH        SUNNY     64  38  38 SE16G25   29.84F
$$

WIZ032>034-041-042-053>061-012100-
SOUTHWEST WISCONSIN

CITY           SKY/WX    TMP DP  RH WIND       PRES   REMARKS
LA CROSSE      SUNNY     79  34  19 S21G33    29.68F
SPARTA         SUNNY     75  31  20 S14G29    29.74F
VIROQUA        SUNNY     74  35  23 S22G35    29.76F
BOSCOBEL       SUNNY     81  34  18 S15G30    29.76F
PRAIRIE DU CHI SUNNY     79  30  16 S16G22    29.76F
PLATTEVILLE    SUNNY     76  36  23 S24G32    29.83F
$$

WIZ056-057-062-063-064-067-068-012100-
SOUTH CENTRAL WISCONSIN

CITY           SKY/WX    TMP DP  RH WIND       PRES   REMARKS
REEDSBURG      SUNNY     73  39  29 S16G22    29.80F
BARABOO/DELLS  SUNNY     73  33  23 S15G29    29.81F
LONE ROCK      NOT AVBL
MINERAL POINT  SUNNY     75  32  20 S15G22    29.83F
MADISON        MOSUNNY   73  37  27 S20G25    29.84F
MIDDLETON      SUNNY     75  31  19 S16G24    29.84F
WATERTOWN      SUNNY     71  38  29 S15G23    29.87F
MONROE         SUNNY     73  37  27 S18G28    29.86F
JANESVILLE     SUNNY     75  34  22 S15G28    29.87F
$$

WIZ051-052-058>065-066-070>072-012100-
SOUTHEAST WISCONSIN

CITY           SKY/WX    TMP DP  RH WIND       PRES   REMARKS
MILWAUKEE      MOSUNNY   55  36  48 SE15      29.94F HAZE
WAUKESHA       MOSUNNY   64  37  36 SE12      29.91F
MILWAUKEE/TIMM SUNNY     57  34  41 SE13      29.93F
RACINE         SUNNY     53  36  52 S16       29.95F
BURLINGTON     SUNNY     71  34  25 S9G25     29.91F
KENOSHA        SUNNY     62  39  42 SE17      29.93F
FOND DU LAC    SUNNY     65  38  36 SE20      29.85F
SHEBOYGAN      SUNNY     50  37  61 S14G22    29.93F
WEST BEND      SUNNY     55  34  44 E13       29.91F
JUNEAU         SUNNY     69  36  30 SE21      29.87F
$$

LSZ147-162-012100-
LAKE SUPERIOR

STATION/POSITION TIME  TEMP    WIND        PRES    WAVE
                       AIR SEA DIR/SP/G            HT/PER
                 (UTC) (F)     (DEG/KT/KT) (MB)    (FT/S)
DEVILS ISLAND    1900   35      60/ 19/ 20 1004.4F
PORT WING        1940   35      20/ 14/ 22 1003.4F
SAXON HARBOR     1921   64     180/ 12/ 22 1002.0F
$$

LMZ867-665-643>646-012100-
LAKE MICHIGAN

STATION/POSITION TIME  TEMP    WIND        PRES    WAVE
                       AIR SEA DIR/SP/G            HT/PER
                 (UTC) (F)     (DEG/KT/KT) (MB)    (FT/S)
NORTHPORT PIER   1903   34     130/ 10/ 12 1015.2F
SISTER BAY       1817   50     180/ 10/ 16   N/A
KEWAUNEE LAKESHO 1900   38     150/  7/  9 1014.2F
SHEBOYGAN LAKESH 1900   36     160/  7/  8 1015.6F
PORT WASHINGTON  1940   41     170/  5/  7 1014.6F
MILWAUKEE LAKESH 1900   38     110/  5/  7   N/A
KENOSHA   LAKESH 1900   42     150/  7/  8 1014.9F
$$

TC  - TEMPERATURE IN CELSIUS
VSB - VISIBILITY IN STATUTE MILES
WCI - WIND CHILL INDEX
HX  - HEAT INDEX




USA.gov is the U.S. government's official web portal to all federal, state and local government web resources and services.